Wind_Speed
48 47 47 47 46 46 46 47 46 46 45 45 44 44 44 44 43 43 43 44 44 44 44 44 45 45 45 45 45 44 44 44 44 43 44 43 43 43 43 43 43 43 43
48 48 47 47 47 47 47 47 47 47 47 46 46 46 45 44 44 44 44 44 45 45 45 45 45 46 46 45 45 44 44 44 44 44 43 43 44 44 44 44 43 44 44
49 49 48 48 48 48 47 47 47 47 47 47 47 47 46 46 45 45 45 45 45 45 45 45 46 47 46 46 46 45 45 45 45 46 45 45 45 45 45 45 45 44 44
49 49 49 49 49 49 48 48 48 47 47 48 48 47 47 47 46 45 45 45 45 45 45 45 46 47 47 47 47 47 47 46 46 46 45 46 47 47 47 46 46 45 45
51 50 50 50 50 49 49 49 49 49 48 48 48 48 48 47 47 47 46 46 45 45 45 45 45 46 46 46 47 47 47 47 47 48 47 48 47 47 47 48 48 46 46
50 51 51 51 51 50 50 50 50 50 49 48 48 49 49 49 49 48 48 47 47 46 46 46 46 46 46 46 46 47 48 49 49 49 48 49 48 48 48 49 50 49 48
49 49 50 50 51 51 51 50 50 50 50 49 49 49 49 50 49 49 49 48 48 47 47 47 47 47 47 47 47 47 48 48 49 50 50 50 50 50 50 50 50 49 49
48 48 48 48 49 49 50 50 50 50 50 50 49 49 49 49 49 49 50 50 49 48 47 47 47 47 47 47 47 48 48 48 48 50 51 51 51 50 50 51 51 51 52
47 47 47 47 47 48 48 49 49 49 49 49 48 48 48 48 49 50 50 50 50 49 48 48 47 47 47 47 47 47 47 48 48 49 49 50 50 50 50 51 51 52 52
45 45 45 46 46 46 47 47 48 48 48 47 47 47 47 46 47 48 48 48 48 48 48 48 49 49 48 48 48 47 47 48 48 49 49 49 48 48 49 50 50 51 51
43 44 44 44 45 46 46 46 46 46 47 47 46 46 46 45 45 45 46 46 45 46 47 48 48 48 49 48 48 47 47 47 48 48 48 48 49 49 49 49 49 50 51
42 42 43 43 44 44 44 44 44 45 45 45 45 45 45 45 45 45 45 44 44 44 45 45 47 47 48 48 47 47 47 47 47 48 49 49 50 49 49 49 49 50 51
40 41 41 42 42 42 42 43 43 43 44 44 45 44 44 45 45 45 45 45 44 44 44 44 45 45 45 46 47 47 48 48 49 49 49 49 49 49 49 50 50 50 51
39 39 39 40 40 41 42 42 42 42 43 43 44 44 44 44 44 44 44 44 44 44 44 44 44 44 44 45 46 47 48 49 49 50 49 49 49 50 50 51 51 51 51
37 37 37 38 37 38 39 40 41 42 42 43 44 44 44 44 43 44 44 44 44 44 44 44 44 45 45 46 46 47 47 48 49 49 49 49 49 49 50 50 51 50 50
36 36 36 36 37 37 37 38 39 40 41 42 42 43 43 44 44 44 43 43 43 42 43 43 43 44 44 45 46 46 47 47 47 48 49 49 49 50 49 49 49 48 48
35 36 36 36 36 36 36 37 38 39 40 40 41 41 42 42 42 43 42 42 41 42 42 42 42 43 43 44 45 45 46 46 46 47 48 48 49 49 48 48 47 47 48
34 34 34 35 36 36 36 37 37 37 38 39 39 40 40 40 41 41 41 41 41 42 42 42 43 43 43 43 44 44 45 45 46 47 48 48 48 48 47 47 47 47 47
32 32 33 34 35 36 36 36 36 36 37 37 38 38 38 39 39 39 39 40 41 41 41 42 43 43 43 43 43 44 44 45 45 46 47 47 46 46 46 46 46 46 46
29 30 32 33 34 35 36 36 36 35 35 36 36 37 37 38 38 39 39 40 40 41 41 41 42 42 42 42 43 43 43 44 44 45 45 45 45 45 46 46 46 46 46
27 28 30 31 32 33 34 34 34 34 34 34 35 36 36 36 37 38 39 40 40 40 40 40 41 41 40 40 41 41 42 42 43 43 43 43 44 44 45 46 46 46 46
27 27 28 28 29 30 31 32 33 34 34 34 35 36 36 37 38 38 38 39 39 40 40 40 40 40 40 40 40 40 41 41 41 41 41 42 43 44 45 45 45 45 45
26 26 26 27 27 28 29 30 31 32 33 34 35 36 37 37 37 38 38 39 39 39 40 40 40 40 41 41 40 40 40 40 41 41 41 41 42 43 43 43 44 43 43
24 25 25 26 27 28 28 29 29 30 31 32 33 34 35 36 37 38 38 38 39 39 40 40 40 40 40 40 40 40 40 40 40 40 40 41 41 41 41 41 41 41 40
24 24 25 26 26 27 27 28 29 30 31 32 32 32 33 34 36 37 37 38 38 38 39 39 40 40 40 40 40 39 39 38 38 38 39 39 38 38 38 38 37 37 37
24 25 25 26 26 26 27 27 28 29 30 31 32 33 34 34 34 34 34 35 35 36 37 37 38 38 38 38 37 37 37 36 36 36 35 35 35 36 36 35 35 34 34
Wind_Direction
240 241 241 243 244 245 246 247 248 249 250 250 251 253 254 255 256 256 258 258 258 259 258 258 258 259 259 259 261 265 266 267 267 267 267 268 270 271 273 274 274 274 275
240 241 241 242 244 245 246 247 248 249 250 251 252 253 254 255 255 256 257 258 258 258 258 258 259 259 261 262 262 265 266 266 266 267 268 269 270 271 274 275 276 275 275
241 242 242 243 244 245 247 248 248 249 250 251 252 253 254 254 255 256 257 258 258 258 258 258 259 259 260 262 263 265 265 266 267 267 269 269 270 271 274 275 276 276 275
242 242 242 243 244 245 247 248 248 249 250 251 252 253 254 254 254 255 256 257 257 257 258 259 259 260 261 262 263 264 265 266 266 268 268 269 270 272 274 274 275 275 276
242 242 242 243 244 246 247 248 248 249 250 251 252 252 253 254 255 255 256 257 257 258 259 260 261 261 261 262 264 264 265 266 266 267 268 269 270 272 274 274 274 274 275
242 242 243 243 245 246 246 247 248 249 250 251 251 252 253 254 255 256 256 257 258 259 260 261 261 261 263 264 265 265 266 266 266 267 268 270 271 273 274 275 273 273 275
243 243 244 244 245 246 246 247 247 248 249 250 252 253 254 255 255 256 257 258 259 260 260 261 261 262 264 265 266 266 267 267 268 268 269 270 272 273 274 273 273 274 275
243 243 244 245 246 247 247 248 248 249 249 250 252 254 254 255 256 256 257 259 259 259 260 260 261 262 263 264 266 267 267 268 268 269 270 272 272 274 274 275 275 275 276
243 244 244 245 246 247 248 248 249 249 249 250 251 253 254 255 255 256 258 258 259 259 259 260 261 262 263 264 266 266 266 267 268 269 270 272 273 273 275 276 277 277 277
244 244 245 244 245 246 248 249 249 248 249 250 251 252 253 255 255 256 256 257 258 259 260 260 261 263 263 264 266 266 266 268 268 270 271 273 274 275 275 276 276 277 278
244 245 246 246 246 246 247 248 249 249 248 249 250 251 252 253 254 255 256 257 258 259 261 262 263 264 264 265 266 266 268 269 269 270 272 274 275 275 276 277 277 278 279
244 245 245 246 246 246 247 248 249 249 249 249 250 251 251 252 253 254 256 258 259 261 262 263 263 264 265 266 267 268 269 270 271 271 272 273 274 275 277 277 278 279 279
245 245 245 245 246 246 247 248 248 249 249 249 249 250 251 252 253 255 256 258 260 261 263 264 264 265 266 267 268 269 269 270 271 271 272 273 274 276 277 279 279 280 280
245 245 245 246 247 247 247 247 248 248 248 249 249 250 251 252 253 254 256 257 259 261 262 264 266 267 268 269 269 269 269 270 272 272 272 273 274 276 277 279 279 280 281
245 245 244 245 246 247 247 247 248 249 249 249 249 250 251 252 253 255 257 258 260 262 264 265 266 268 269 269 270 271 271 272 272 272 272 273 274 276 277 278 279 280 281
243 244 245 245 245 246 247 247 248 248 249 249 250 250 251 252 253 255 257 259 261 262 264 266 267 268 270 271 272 272 272 272 273 273 272 273 274 275 277 277 278 279 281
242 244 245 244 245 246 247 247 248 248 249 249 250 250 251 252 254 255 257 259 260 262 264 266 268 270 271 272 273 274 273 273 273 273 273 273 275 276 276 277 278 279 281
241 243 244 244 244 245 246 247 248 248 248 248 249 250 251 252 254 255 256 258 260 262 265 267 270 271 273 274 275 275 274 274 274 274 274 275 275 275 275 276 278 279 281
241 242 244 245 245 245 245 246 248 248 248 248 248 250 251 253 255 256 257 259 261 263 266 269 271 273 274 275 275 275 275 275 275 275 275 275 275 274 275 277 278 280 281
243 244 245 246 246 245 245 247 247 248 248 248 249 251 252 254 255 257 259 261 263 265 267 269 271 273 274 274 275 275 275 275 276 277 276 275 275 275 276 277 278 280 281
246 246 247 248 248 247 247 247 248 248 249 250 251 252 253 254 255 258 261 262 264 266 267 269 271 272 273 274 275 275 275 276 276 276 275 275 275 275 276 277 278 280 281
247 248 248 249 249 249 248 248 248 249 251 252 253 254 254 256 257 259 261 263 264 266 268 270 271 272 273 274 275 276 276 276 277 277 276 276 276 277 278 278 280 281 281
247 248 248 248 249 249 250 250 251 252 253 254 254 254 255 257 258 260 261 263 265 268 269 270 270 272 274 275 276 276 276 277 277 278 278 278 278 279 279 280 280 281 281
247 248 249 249 251 252 252 252 254 255 257 258 258 258 258 259 260 261 263 264 266 268 269 269 270 272 273 274 275 276 277 277 278 278 278 278 279 280 280 280 280 280 280
248 249 250 252 253 253 254 255 256 257 258 259 260 261 262 263 263 264 265 266 266 267 269 269 270 271 273 274 275 276 276 277 277 277 277 278 279 279 279 279 279 279 278
249 250 252 253 254 255 255 257 259 261 261 261 261 262 264 265 265 265 266 267 269 270 270 271 272 273 273 274 274 275 275 277 278 278 277 278 279 279 278 278 278 278 277
Height
5659 5664 5668 5672 5676 5680 5684 5688 5692 5695 5698 5702 5705 5708 5710 5713 5715 5717 5719 5721 5723 5725 5727 5729 5731 5734 5736 5738 5740 5741 5742 5743 5744 5745 5746 5747 5747 5747 5747 5747 5747 5747 5747
5648 5652 5657 5661 5665 5669 5673 5677 5680 5684 5687 5691 5694 5697 5700 5702 5704 5707 5709 5710 5713 5715 5716 5718 5720 5723 5725 5727 5729 5731 5731 5732 5733 5734 5735 5736 5737 5737 5736 5736 5736 5736 5736
5636 5641 5645 5650 5654 5658 5662 5665 5669 5672 5676 5679 5682 5686 5688 5691 5693 5696 5698 5700 5702 5704 5705 5707 5709 5712 5714 5716 5718 5719 5720 5721 5722 5723 5724 5725 5726 5725 5726 5726 5725 5725 5725
5625 5629 5634 5638 5642 5646 5650 5653 5657 5661 5664 5667 5671 5674 5677 5679 5682 5684 5686 5688 5690 5692 5694 5696 5698 5700 5702 5704 5706 5707 5708 5709 5711 5712 5713 5714 5714 5714 5714 5715 5714 5714 5713
5612 5617 5621 5625 5630 5633 5637 5641 5645 5648 5652 5655 5658 5662 5665 5668 5670 5673 5675 5677 5679 5681 5683 5685 5687 5689 5690 5692 5694 5696 5697 5698 5699 5700 5701 5702 5702 5702 5703 5703 5703 5702 5702
5600 5604 5608 5612 5617 5621 5624 5628 5632 5636 5639 5643 5646 5649 5652 5655 5658 5660 5662 5665 5667 5669 5671 5673 5675 5677 5679 5680 5682 5683 5684 5685 5686 5687 5688 5689 5690 5690 5690 5690 5690 5690 5690
5587 5591 5596 5600 5604 5608 5612 5616 5619 5623 5627 5630 5634 5637 5640 5643 5645 5648 5650 5652 5655 5657 5659 5661 5663 5665 5666 5667 5669 5670 5671 5672 5673 5674 5675 5676 5677 5677 5677 5677 5677 5677 5678
5575 5579 5583 5587 5591 5595 5599 5603 5607 5611 5614 5618 5621 5624 5627 5630 5632 5635 5637 5639 5642 5644 5647 5649 5651 5652 5654 5655 5656 5657 5658 5659 5660 5661 5662 5663 5663 5663 5664 5664 5664 5664 5664
5563 5567 5571 5575 5579 5583 5587 5591 5594 5598 5602 5605 5608 5611 5614 5617 5620 5622 5624 5627 5629 5631 5634 5636 5638 5639 5641 5642 5643 5645 5646 5647 5647 5647 5648 5649 5649 5650 5650 5650 5650 5649 5650
5552 5556 5560 5563 5567 5571 5575 5578 5582 5586 5589 5593 5596 5599 5602 5605 5607 5609 5611 5614 5617 5619 5621 5623 5625 5627 5628 5629 5630 5632 5633 5634 5634 5634 5635 5636 5636 5636 5636 5635 5635 5635 5635
5540 5544 5548 5552 5555 5559 5563 5566 5570 5573 5577 5581 5584 5587 5590 5593 5595 5597 5599 5601 5604 5606 5608 5610 5612 5613 5615 5616 5617 5619 5620 5620 5621 5621 5622 5622 5623 5622 5622 5621 5621 5620 5620
5529 5533 5536 5540 5543 5547 5551 5554 5558 5561 5565 5568 5572 5575 5578 5581 5583 5585 5587 5590 5592 5593 5595 5597 5598 5600 5601 5602 5604 5605 5606 5607 5608 5608 5609 5609 5609 5609 5608 5607 5607 5605 5604
5518 5522 5525 5528 5532 5536 5539 5543 5546 5549 5553 5556 5560 5563 5566 5569 5571 5573 5575 5577 5579 5581 5583 5584 5585 5587 5588 5589 5590 5591 5592 5593 5594 5594 5595 5595 5595 5595 5594 5593 5592 5591 5590
5508 5511 5514 5518 5521 5524 5527 5531 5534 5538 5541 5544 5548 5551 5554 5557 5559 5561 5563 5565 5567 5569 5570 5572 5573 5574 5575 5576 5577 5577 5578 5579 5579 5580 5581 5581 5580 5580 5579 5579 5578 5577 5576
5498 5501 5504 5507 5510 5513 5516 5519 5522 5526 5529 5532 5536 5539 5542 5545 5547 5549 5551 5553 5555 5557 5558 5559 5560 5561 5562 5563 5563 5563 5564 5564 5564 5565 5565 5566 5566 5565 5565 5564 5563 5562 5561
5488 5491 5494 5497 5499 5502 5505 5508 5511 5514 5517 5520 5524 5527 5530 5533 5535 5537 5539 5541 5543 5544 5546 5547 5548 5549 5549 5549 5549 5549 5549 5549 5550 5550 5550 5551 5551 5550 5550 5549 5548 5547 5546
5478 5481 5484 5487 5489 5492 5495 5498 5501 5504 5506 5509 5512 5515 5518 5521 5523 5525 5527 5529 5531 5532 5534 5535 5536 5536 5536 5536 5536 5536 5535 5535 5535 5535 5536 5536 5536 5535 5535 5534 5533 5533 5531
5468 5471 5474 5477 5480 5482 5485 5488 5490 5493 5496 5498 5502 5504 5507 5509 5512 5514 5516 5517 5519 5520 5522 5523 5523 5524 5523 5523 5523 5522 5522 5521 5521 5521 5521 5521 5521 5520 5520 5520 5519 5519 5518
5459 5462 5465 5467 5470 5472 5475 5478 5480 5483 5485 5488 5491 5493 5496 5498 5501 5503 5504 5506 5507 5509 5510 5510 5511 5511 5511 5510 5510 5509 5508 5508 5507 5507 5507 5506 5506 5506 5506 5506 5505 5504 5503
5451 5453 5455 5458 5460 5463 5465 5468 5471 5473 5475 5478 5481 5483 5485 5488 5490 5492 5493 5495 5496 5497 5498 5498 5498 5498 5498 5497 5496 5496 5495 5494 5494 5493 5493 5492 5492 5492 5492 5492 5491 5490 5489
5443 5445 5447 5449 5451 5453 5456 5458 5461 5463 5466 5468 5470 5472 5475 5477 5479 5481 5482 5483 5484 5485 5485 5486 5485 5485 5485 5484 5483 5483 5482 5481 5480 5480 5479 5479 5478 5478 5478 5478 5477 5476 5475
5435 5437 5439 5441 5443 5445 5447 5449 5451 5454 5456 5458 5460 5462 5464 5466 5468 5469 5470 5471 5472 5472 5473 5473 5473 5472 5472 5471 5471 5470 5469 5468 5468 5467 5466 5465 5465 5465 5464 5464 5463 5463 5462
5428 5430 5431 5433 5435 5437 5438 5440 5442 5444 5446 5448 5449 5451 5453 5454 5456 5457 5458 5459 5460 5460 5460 5460 5460 5460 5459 5459 5458 5458 5457 5456 5455 5454 5454 5453 5452 5452 5451 5451 5450 5449 5449
5421 5422 5424 5425 5427 5429 5430 5432 5433 5435 5436 5438 5439 5440 5442 5443 5444 5445 5446 5447 5447 5447 5447 5447 5447 5447 5447 5446 5446 5445 5444 5444 5443 5442 5441 5441 5440 5440 5439 5438 5437 5436 5435
5413 5415 5416 5418 5419 5421 5422 5423 5425 5426 5427 5428 5429 5430 5431 5432 5432 5433 5434 5434 5434 5434 5434 5434 5434 5434 5434 5433 5433 5433 5432 5431 5430 5430 5429 5429 5428 5427 5426 5426 5425 5424 5423
5406 5407 5409 5410 5411 5412 5414 5415 5416 5416 5417 5418 5419 5419 5420 5421 5421 5421 5422 5422 5422 5422 5422 5421 5421 5421 5421 5421 5420 5420 5420 5419 5419 5418 5418 5417 5416 5416 5415 5414 5414 5413 5413